THORAD AGENA D DEB

Satellite information

Favourite Embed

Satellite Type and Status

DEBRISIN ORBIT

Key statistics

Satellite THORAD AGENA D DEB at a glance.

Uptime

20341

Days in orbit

Revolutions

≈ 13.9

Per day

Orbit

SSO

Sun Synchronous Orbit

Inclination

99.9

Latest

Satellite identification and parameters

Extended collection of information and parameters for THORAD AGENA D DEB.

Object identification

Identified? True

Debris? True

Object name: THORAD AGENA D DEB

International designator: 1970-025RH

Object number (NORAD): 42503

Object ID (CCSDS): 42503

Country: UNITED STATES OF AMERICA (US)

Current information (Y/N): Y

RCS size: SMALL

Orbital parameters

Period: 103.852 minutes

Inclination: 99.9469 deg

SMA: 7318.741 km

Apoapsis: 951.968 km

Periapsis: 929.244 km

RAAN: 348.1275 deg

Eccentricy: 0.00155243

Argument of periapsis: 261.5974 deg

Mean anomaly: 98.342 deg

Mean motion: 13.86590418 rev/day

Mean motion (dot): 0.00001519 rev/day2

B* drag term: 0.0013483253 1/REarth

Two-line elements (TLE)

Creation date: Dec. 12, 2025, 10:14 a.m.

Reference frame: TEME

Reference center: EARTH

Epoch: Dec. 12, 2025, 6:13 a.m. UTC

TLE line 0: 0 THORAD AGENA D DEB

TLE line 1: 1 42503U 70025RH 25346.25903096 .00001519 00000-0 13483-2 0 9999

TLE line 2: 2 42503 99.9469 348.1275 0015524 261.5974 98.3420 13.86590418608457

Live tracking on map

Real-time ground track for satellite THORAD AGENA D DEB.

In-orbit conjunctions

A list of the most updated potential collisions computed for object THORAD AGENA D DEB.

Target Orbit TCA Probability of collision Miss distance Type
COSMOS 2346 LEO 2025-10-03 02:20:13 0.0001130167 69.0 (m) PAYLOAD
COSMOS 1275 DEB LEO 2025-07-13 20:24:45 0.0002254208 37.0 (m) DEBRIS

Associated space launch

Meteorological research and development satellite

THORAD AGENA D DEB was lifted into orbit during the mission ‘Thorad SLV-2G Agena D | Nimbus 4’, on board a Thorad SLV-2G Agena D space rocket.

The launch took place on April 8, 1970, 8:17 a.m. from Space Launch Complex 2E.

For more information about the launch, click the button.

Launch to space Thorad SLV-2G Agena D | Nimbus 4
Thorad SLV-2G Agena D | Nimbus 4

Agency: N/A

Status: Launch Successful

Launch date: April 8, 1970, 8:17 a.m. UTC

Rocket: Thorad SLV-2G Agena D

Launch pad: Space Launch Complex 2E

Location: Vandenberg SFB, CA, USA

...

Latest news about this satellite

There are no fresh news available about this satellite. Check back as we update our databases every day.


Newsletter sign-up

Weekly statistics, charts and insights to help you stay on top of the space industry.